Find Starlink 4027

NORAD ID: 52601 Int'l Des: 2022-052 Owner: SPXS Country: US Constellation: starlink operational
LEOCIRCULAR

当前视图

正在加载3D地球...

About Starlink 4027

Starlink 4027 (NORAD 52601) is a starlink constellation satellite (v1.5) launched May 14, 2022 by SPXS of US. It operates in LEO, CIRCULAR orbit with a mass of 297.00 kg.

即将过境

Passes for default location (London). Set your location on the main map for personalized predictions.

高度历史

Loading altitude history...

两行轨道根数

1 52601U 22052D 26264.06854032 .00001618 00000-0 57249-4 0 9990
2 52601 53.1611 112.8861 0001248 77.0128 283.1015 15.35421349241273
Epoch: Sep 21, 2026 • Age: 12 hours

当前状态

高度 463.4 km
远地点 / 近地点 N/A
速度 7.64 km/s
星下点 -12.46°S, 98.2°E
发射日期 May 14, 2022
运行时间 4.3 years
类型 internet

技术详情

分类 Payload
质量 297.00 kg
干质量 275.00 kg
长度 0.20 m
跨度 9.00 m
形状 ? Box + pan
制造商 SPXS
平台类型 Starlink
阶段状态 In Orbit
所有者/国家 SPXS/US

Most Searched